Refine Search
Year Filed

2010 ×

Court

Colorado ×

Click on desired case number or refine your search to continue

Case TitleCourtCase NoChpDate FiledClosedDisposition
EnerCrest Construction, Inc.Colorado1:10-bk-41841712/22/2010
Rural Health Plans Initiative Administration CompaColorado1:10-bk-39610711/23/2010
DB Capital Holdings, LLCColorado1:10-bk-258051106/24/201012/16/2011Dismissed for Other Reason 11/14/2011
Springbok Services, Inc.Colorado1:10-bk-25285706/18/201006/13/2016Discharge Not Applicable
The SRKO Family Limited PartnershipColorado1:10-bk-131861102/19/201006/20/2016Discharge Not Applicable
Stone Pine Investment Banking, LLCColorado1:10-bk-37635710/29/2010
Townsedge Telluride, LLC and Trails Edge Telluride, LLCColorado1:10-bk-303761108/12/201001/25/2012Dismissed for Other Reason
Trails Edge Telluride, LLCColorado1:10-bk-303781108/12/201001/25/2012Dismissed for Other Reason
Grant Street Mansion, LLCColorado1:10-bk-310941108/19/201004/18/2011Dismissed for Other Reason
Threadneedle Street, LLCColorado1:10-bk-403141112/02/201006/19/2012Dismissed for Other Reason
Glenwood Commercial, LLCColorado1:10-bk-272421107/09/201011/04/2013Dismissed for Other Reason
Mesa Oil, Inc. and Lawrence Albert MeersColorado1:10-bk-337551109/18/201005/15/2013Discharge Not Applicable
Columbine Meat Packing, Inc.Colorado1:10-bk-12314702/09/201005/01/2013Discharge Not Applicable
Gill & Surinder, LLCColorado1:10-bk-333181109/14/201004/14/2011Dismissed for Other Reason 03/30/2011
Best Care, Inc.Colorado1:10-bk-243091106/09/201008/31/2012Dismissed for Other Reason 07/26/2012
Whitaker & Sons Investments, LLCColorado1:10-bk-161631103/23/201005/07/2010Dismissed for Other Reason 04/14/2010
GOG Campground, LLCColorado1:10-bk-299091108/05/201007/29/2011Dismissed for Other Reason 06/29/2011
Woodmoor Pines Golf & Country Club LLC and Jerry R. HilderbrandColorado1:10-bk-20443704/30/201008/15/2012Dismissed for Other Reason 08/10/2010
Trujillo Property Investments, LLCColorado1:10-bk-123421102/09/201001/24/2012Dismissed for Other Reason 12/13/2010
Trujillo Ranch Holdings, LLCColorado1:10-bk-123401102/09/201001/24/2012Dismissed for Other Reason 12/13/2010
Rock Creek Laser CorporationColorado1:10-bk-26936707/07/201004/25/2011Discharge Not Applicable
Woodworks Lumber and Sawmill, Inc.Colorado1:10-bk-12812702/16/201002/08/2013Discharge Not Applicable
Raining Sun Enterprises, Inc.Colorado1:10-bk-123731102/09/201003/11/2011Dismissed for Other Reason 02/04/2011
Holcomb Landscape, Inc.Colorado1:10-bk-28330707/22/201009/19/2011Discharge Not Applicable
DRJ Properties, LLCColorado1:10-bk-230521105/26/201008/22/2011Discharge Not Applicable
TIP, LLCColorado1:10-bk-205821104/30/201007/12/2011Discharge Not Applicable
MStar PTC, LLCColorado1:10-bk-326131109/03/201009/14/2011Dismissed for Other Reason 08/30/2011
Biomass Energy CorporationColorado1:10-bk-27919707/16/201006/11/2012Discharge Not Applicable
Smith Fine Woodworks, Inc.Colorado1:10-bk-23781706/02/201003/04/2013Discharge Not Applicable
SGD Timber Canyon, LLCColorado1:10-bk-12804702/16/201008/21/2013Discharge Not Applicable
Harvest Sharing, Inc.Colorado1:10-bk-269131107/07/201008/20/2010Dismissed for Other Reason 08/02/2010
Royal Team Realty, LLCColorado1:10-bk-21660705/12/201003/12/2012Discharge Not Applicable
Philip P. Maloney and American Home Mortgage Servicing, Inc.Colorado1:10-bk-24850706/15/201001/21/2011Standard Discharge 10/27/2010
Greenwald Tschetco, LLCColorado1:10-bk-353051110/04/201012/28/2011Dismissed for Other Reason 11/08/2011
Prime Time Communications, LLC and MStar PTC, LLCColorado1:10-bk-116641101/29/201009/14/2011Dismissed for Other Reason 08/30/2011
Erica Kalkofen Designs, LLCColorado1:10-bk-10271701/08/201003/16/2010Discharge Not Applicable
Schmer's Towing, LLCColorado1:10-bk-39888711/29/201001/17/2013Discharge Not Applicable
Mountain Resort Properties, LLCColorado1:10-bk-177091104/05/201004/05/2011Dismissed for Other Reason 01/28/2011
IGWT LLCColorado1:10-bk-378221111/02/201008/16/2011Dismissed for Other Reason 05/27/2011
Evans Convenience & Carwash, LLCColorado1:10-bk-397261111/24/201009/30/2011Dismissed for Other Reason 07/14/2011
Sonshine Furniture/Today, Inc.Colorado1:10-bk-113091101/26/201001/24/2013Dismissed for Other Reason
Jobsite, Inc.Colorado1:10-bk-142131103/02/201001/09/2012Discharge Not Applicable
Asset Management & Marketing, LLCColorado1:10-bk-263681106/30/201005/13/2013Dismissed for Other Reason 04/25/2013
Kendall Brook LLCColorado1:10-bk-102081101/07/201003/11/2010Dismissed for Other Reason 02/18/2010
Platte River Industries, Inc. and PRI Affiliated Services, LLCColorado1:10-bk-137221102/25/201005/20/2011Dismissed for Other Reason 04/29/2011
IPS, LLCColorado1:10-bk-24156706/07/201008/28/2012Discharge Not Applicable
Brothers Auto Sales, LLCColorado1:10-bk-33941709/21/201002/07/2013Discharge Not Applicable
H And B Auto Parts, Inc.Colorado1:10-bk-18494704/13/201011/30/2010Discharge Not Applicable
AJ Real Estate & Development, LLCColorado1:10-bk-123431102/09/201001/24/2012Dismissed for Other Reason 12/13/2010
Corsentino Dairy Farms, Inc. and Nancy J CorsentinoColorado1:10-bk-327761209/07/201004/18/2019Standard Discharge 04/01/2019